Location: Crundale
(51.1833°N, 0.9833°E)
Time: 09:58:31
(UTC+00:00)

Daily predictions for brighter satellites

Satellite Brightness Start Highest point End
(mag) Time Altitude Azimuth Time Altitude Azimuth Time Altitude Azimuth
ERS-1 Rocket 3.4 20:20:03 10° SE 20:24:54 51° ENE 20:29:47 10° N
MOS 1 4.4 20:19:57 10° SSE 20:25:38 88° WSW 20:31:21 10° NNW
ATLAS 2AS CENTAUR R/B 2.9 20:18:19 10° SW 20:25:43 84° SE 20:32:50 10° NE
USA 59 Rocket 2.2 20:27:12 10° NNW 20:29:06 14° NNE 20:31:13 10° NE
SPOT 3 Rocket 4.3 20:24:54 10° SE 20:29:41 40° ENE 20:34:28 10° N
Cosmos 1782 2.8 20:26:32 10° SSW 20:30:19 80° W 20:34:10 10° N
IRS-1A Rocket 4.3 20:26:46 10° SSE 20:32:24 75° ENE 20:37:58 10° NNW
Cosmos 1943 Rocket 3.1 20:28:09 10° NW 20:33:32 46° WSW 20:38:53 10° S
Cosmos 1420 Rocket 4.1 20:29:17 10° NNW 20:34:38 81° ENE 20:39:57 10° SSE
USA 281 3.7 20:28:19 10° SE 20:34:40 53° NE 20:41:02 10° NNW
Cosmos 1743 3.3 20:34:31 10° N 20:37:56 37° ENE 20:41:20 10° SE
Cosmos 2278 Rocket 4.0 20:33:26 10° NW 20:38:07 27° WSW 20:42:47 10° SSW
NOSS 3-1 (A) 4.3 20:31:51 10° NW 20:39:00 71° SW 20:47:43 10° SSE
ISS -3.7 20:35:46 10° W 20:39:07 81° N 20:42:27 10° E
Cosmos 972 4.3 20:35:51 10° SSW 20:40:42 73° ESE 20:45:40 10° NNE
USA 245 2.2 20:42:40 11° SSE 20:44:47 52° ENE 20:46:59 10° N
Cosmos 2297 3.8 20:39:57 10° NNW 20:45:44 75° ENE 20:51:23 10° SE
Cosmos 1634 Rocket 4.3 20:40:05 10° N 20:46:19 57° ENE 20:52:27 10° SSE
Cosmos 2112 Rocket 4.2 20:45:00 10° S 20:50:10 55° ESE 20:55:20 10° NNE
USA 290 2.8 20:47:01 10° NW 20:50:11 52° WSW 20:53:19 10° S
Cosmos 1766 Rocket 3.7 20:46:41 10° N 20:51:05 63° ENE 20:55:30 10° SSE
Okean-O 3.7 20:48:12 10° S 20:52:23 42° W 20:56:36 10° NNW
USA 229 DEB 4.1 20:46:40 10° NW 20:53:57 75° NE 21:01:46 11° SE
USA 229 4.1 20:46:46 10° NW 20:54:03 75° NE 21:01:53 11° SE
Cosmos 2034 Rocket 4.2 20:49:07 10° NNW 20:55:19 74° W 21:01:32 10° S
Cosmos 1726 3.2 20:53:50 10° NNE 20:56:27 23° ENE 20:58:35 13° ESE
Cosmos-2242 4.4 20:52:29 10° SW 20:56:27 40° WNW 21:00:29 10° N
Spot 2 Rocket 3.5 20:54:11 10° SSE 20:59:12 75° ENE 21:04:15 10° NNW
Cosmos 1680 Rocket 3.5 20:55:06 10° SSW 21:00:22 76° ESE 21:05:40 10° NNE
Meteor 2-6 Rocket 4.5 20:59:16 10° SSE 21:04:40 50° E 21:09:58 10° NNE
USA 32 4.1 21:01:57 10° S 21:07:07 67° E 21:12:19 10° N
Tsikada Rocket 4.0 21:03:23 10° S 21:09:33 81° E 21:15:50 10° NNE
CZ-4C R/B 4.3 21:06:41 10° N 21:10:12 45° WNW 21:13:52 10° SW
Sich 1 4.5 21:09:14 10° NNE 21:12:52 25° ENE 21:15:51 13° ESE
USA 276 1.8 21:12:07 10° W 21:14:14 40° SSW 21:15:14 24° SE
MetOp-A 4.1 21:11:24 15° SE 21:14:57 51° ENE 21:19:36 10° N
Cosmos 2263 4.3 21:09:31 10° NNW 21:15:13 73° ENE 21:20:00 15° SE
SL-16 R/B 2.2 21:10:04 10° SSW 21:15:44 80° ESE 21:21:27 10° NNE
MOS 1 Rocket 3.5 21:13:56 13° SSE 21:18:27 82° ENE 21:23:45 10° NNW
Cosmos 2056 Rocket 4.0 21:13:11 10° NNW 21:18:30 58° WSW 21:23:28 11° S
Lacrosse 5 3.0 21:14:42 10° WNW 21:19:16 33° SW 21:23:08 13° SSE
Cosmos 1536 3.5 21:16:02 10° N 21:19:42 39° ENE 21:22:15 17° SE
Cosmos 1624 Rocket 4.5 21:15:46 10° NNW 21:20:50 55° WSW 21:25:35 12° S
Lacrosse 5 rocket 1.4 21:17:02 10° WSW 21:21:20 90° SE 21:25:34 10° ENE
Ariane Rocket 3.1 21:16:49 11° S 21:21:39 75° WSW 21:26:45 10° NNW
Cosmos 1452 Rocket 3.8 21:17:30 10° NNW 21:22:42 56° ENE 21:26:45 16° SE
Cosmos 1408 Rocket 4.1 21:18:48 10° N 21:23:06 45° ENE 21:26:12 17° SE
Cosmos 44 3.9 21:18:29 10° NW 21:23:10 46° WSW 21:26:45 15° S
Spot 1 4.2 21:20:27 10° NNE 21:24:24 48° E 21:27:37 15° S
Cosmos 1340 4.3 21:24:29 10° NNE 21:27:00 19° ENE 21:28:49 13° ESE
Okean 1 4.4 21:25:59 18° SE 21:27:53 26° E 21:31:09 10° NNE
Cosmos 2369 Rocket 2.3 21:22:18 10° NNW 21:27:54 75° WSW 21:32:23 16° SSE
Cosmos 2221 2.9 21:24:00 10° SSW 21:28:17 65° WNW 21:32:37 10° N
Cosmos 2084 3.8 21:27:55 10° NW 21:31:31 43° SW 21:33:53 19° SSE
FALCON 9 R/B 4.5 21:29:06 10° SW 21:35:11 30° SSE 21:51:24 10° ESE
USA 306 2.9 21:37:27 10° WNW 21:41:16 66° NNE 21:45:08 10° E
Cosmos 2237 Rocket 4.3 21:38:10 10° WSW 21:43:10 30° NW 21:48:12 10° NNE
Cosmos 921 Rocket 3.1 21:38:48 10° SSW 21:43:16 83° WNW 21:47:48 10° NNE
Okean 3 Rocket 3.8 21:40:24 10° NNW 21:44:48 69° W 21:48:05 17° S
GEOS 3 Rocket 3.5 21:41:08 10° NE 21:46:22 85° SE 21:51:30 10° SW
ATLAS 3B R/B 4.0 21:43:51 10° NW 21:50:46 36° WSW 21:57:02 12° S
Landsat 5 3.1 21:48:20 10° NNE 21:52:08 85° ESE 21:54:55 17° SSW
SL-8 R/B 4.4 21:50:07 10° SSW 21:54:15 30° SSE 21:58:23 10° E
Cosmos 1500 Rocket 3.5 21:51:10 10° N 21:55:30 70° ENE 21:57:58 25° SSE
Terra 3.2 21:52:51 10° SSW 21:57:04 32° W 22:01:19 10° NNW
Cosmos 1733 3.3 21:55:11 10° N 21:58:38 51° ENE 22:00:07 29° SE
Cosmos 1943 3.3 21:53:57 12° S 21:59:06 60° ESE 22:04:42 10° NE
ALOS 2 4.4 21:58:50 12° ESE 22:01:38 21° ENE 22:04:55 10° NNE
USA 234 3.8 21:55:28 10° E 22:01:54 61° NNE 22:08:20 10° WNW
Cosmos 1048 Rocket 3.9 21:59:01 13° SSW 22:03:35 73° ESE 22:08:42 10° NNE
Cosmos 1805 Rocket 3.6 22:00:02 10° N 22:04:25 71° ENE 22:06:48 26° SSE
H-2A R/B 3.5 22:02:30 20° ESE 22:04:42 36° ENE 22:08:34 10° N
Cosmos 1842 Rocket 4.0 22:01:41 12° SSW 22:05:44 63° WNW 22:10:08 10° N
Lacrosse 4 Rocket 3.4 22:03:34 10° NNW 22:06:44 21° NE 22:09:54 10° E
Cosmos 494 Rocket 4.0 22:01:40 10° SSW 22:06:47 81° WNW 22:11:56 10° NNE
Meteor 1-10 Rocket 4.2 22:02:23 15° S 22:07:19 89° ESE 22:13:01 10° NNE
Cosmos 1151 Rocket 3.7 22:08:37 26° SE 22:10:28 40° E 22:14:34 10° NNE
Meteor 2-9 Rocket 4.3 22:05:17 10° NNW 22:11:06 90° NE 22:14:56 23° S
Cosmos 1302 Rocket 4.2 22:08:56 10° NNW 22:14:07 63° ENE 22:17:13 24° SE
Meteor 1-11 Rocket 3.9 22:08:46 10° NNW 22:14:21 69° W 22:18:13 21° S
ISS -3.6 22:12:27 10° W 22:15:43 53° SSW 22:16:32 40° SSE
Cosmos 1633 Rocket 4.3 22:12:02 10° N 22:15:58 31° ENE 22:18:08 20° ESE
Meteor 2-10 4.2 22:10:38 10° NNW 22:16:18 85° W 22:19:41 24° S
ATLAS 2AS CENTAUR R/B 4.2 22:10:33 10° W 22:17:20 40° NNW 22:23:53 10° NE
Meteor 1-19 Rocket 4.3 22:14:06 21° S 22:18:10 71° E 22:23:57 10° NNE
ARIANE 5 R/B 2.6 22:16:04 28° SSE 22:18:17 72° ENE 22:22:36 10° N
Cosmos 1340 Rocket 3.0 22:17:22 31° SSE 22:18:57 53° E 22:22:52 10° NNE
USA 281 4.0 22:14:24 16° S 22:19:19 42° WSW 22:25:32 10° NW
USA 59 Rocket 0.7 22:15:58 10° NW 22:19:29 47° NE 22:22:59 16° ESE
Cosmos 1331 Rocket 4.2 22:15:01 10° NNW 22:20:13 62° WSW 22:23:13 25° S
NOSS 2-1 (E) 4.1 22:16:50 10° NW 22:20:21 48° NE 22:23:50 16° ESE
MINOTAUR 4 R/B 3.8 22:18:59 10° NNE 22:21:55 51° ESE 22:22:22 45° SE
Cosmos 1110 Rocket 4.4 22:16:54 10° NNW 22:22:07 56° WSW 22:25:12 24° S
BREEZE-M DEB (TANK) 4.3 22:18:49 10° WSW 22:22:52 73° SSE 22:40:55 10° E
H-2A R/B 4.4 22:23:49 10° ENE 22:24:46 11° E 22:25:42 10° E
CZ-2C R/B 3.7 22:20:41 10° NNE 22:25:13 62° ESE 22:27:22 29° S
Cosmos 1726 3.7 22:27:06 10° NW 22:29:36 22° W 22:31:07 16° SW
NOSS 2-1 (D) 3.8 22:28:25 10° NW 22:32:00 60° NE 22:34:55 21° ESE
Nadezhda 4 Rocket 4.0 22:30:38 21° S 22:34:56 89° E 22:41:13 10° N
Cosmos 1805 3.0 22:35:13 10° N 22:38:57 81° E 22:40:09 41° SSE
IRIDIUM 106 4.3 22:36:49 10° N 22:42:05 82° E 22:44:45 30° S
Cosmos 1743 Rocket 4.1 22:41:34 10° NNW 22:45:49 50° W 22:47:56 27° SSW
Sich 1 3.9 22:46:22 10° NNW 22:50:28 41° W 22:52:35 24° SSW
Spot 2 4.4 22:50:57 32° SE 22:53:01 68° ENE 22:57:49 10° N
Cosmos 1975 2.7 22:51:56 10° NNW 22:55:53 86° W 22:57:09 42° S
Lacrosse 5 rocket 2.8 22:56:01 10° W 23:00:03 40° N 23:03:58 10° ENE
SL-16 R/B 4.3 22:55:46 10° W 23:00:30 26° NW 23:05:16 10° NNE
Cosmos 1340 3.5 22:58:16 10° NNW 23:01:23 34° W 23:02:14 29° SW
Cosmos 1603 3.8 22:57:29 16° SW 23:02:09 77° WNW 23:07:55 10° NNE
Cosmos 1626 1.9 23:04:41 52° ESE 23:04:57 54° E 23:08:09 10° NNE
PSLV R/B 4.1 23:02:31 10° N 23:06:35 65° WNW 23:08:26 30° SW
USA 267 3.5 23:00:55 10° ENE 23:07:09 45° SE 23:10:42 25° SSW
NOSS 2-1 (C) 3.4 23:03:31 10° NW 23:07:14 78° SW 23:09:08 35° SSE
Cosmos 1674 4.0 23:07:50 23° E 23:08:11 23° E 23:11:00 10° NE
Cosmos 1627 Rocket 4.5 23:05:12 28° S 23:08:52 86° E 23:15:13 10° N
Meteor 1-27 Rocket 4.4 23:04:40 16° SW 23:08:52 49° WNW 23:14:15 10° N
Cosmos 2369 Rocket 4.4 23:08:18 10° WNW 23:10:56 14° W 23:13:35 10° SW
USA 306 2.8 23:11:16 10° WNW 23:15:01 48° SSW 23:15:15 47° SSW
Cosmos 2026 Rocket 4.0 23:12:22 27° SSW 23:16:05 85° W 23:22:24 10° N
Cosmos 1833 Rocket 4.0 23:17:10 22° SE 23:18:45 25° ESE 23:23:12 10° NE
NOSS 3-3 (C) 4.5 23:26:06 30° SSE 23:27:43 36° ESE 23:33:24 10° NE
Cosmos 220 Rocket 3.9 23:30:06 42° SSW 23:31:31 80° ESE 23:35:53 10° NNE
Cosmos 1515 Rocket 3.8 23:31:37 40° SSE 23:32:53 57° E 23:37:08 10° NNE
GP-B 4.4 23:30:19 10° NNE 23:34:14 30° E 23:35:54 23° ESE
Cosmos 1328 Rocket 3.6 23:33:10 37° SSW 23:34:49 69° WNW 23:39:09 10° N
SL-8 R/B 3.6 23:31:30 10° WSW 23:36:11 59° S 23:40:53 10° E
Cosmos 1553 Rocket 3.9 23:30:31 10° N 23:36:38 84° W 23:39:39 32° S
Meteor 1-18 Rocket 4.4 23:33:57 28° SSW 23:37:13 75° WNW 23:43:11 10° N
ALOS 2 2.9 23:36:13 38° SSW 23:37:37 57° W 23:41:58 10° NNW
Spot 4 4.5 23:37:28 30° SW 23:39:12 43° W 23:43:45 10° NNW
H-2A R/B 3.8 23:38:30 24° SW 23:39:43 28° W 23:43:21 10° NW
Cosmos 1470 Rocket 3.7 23:35:53 10° NNW 23:40:20 68° W 23:41:47 41° SSW
Cosmos 1869 Rocket 4.4 23:37:00 10° N 23:41:09 42° ENE 23:42:59 27° SE
USA 234 3.2 23:38:50 13° SE 23:44:50 77° SSW 23:51:26 10° WNW
Lacrosse 4 Rocket 1.2 23:41:23 10° NW 23:45:27 73° WSW 23:46:29 48° SSE
Meteor 2-4 Rocket 4.3 23:42:30 23° SW 23:46:06 56° WNW 23:51:58 10° N
NOSS 8 (A) 4.2 23:46:21 56° SW 23:47:01 88° SE 23:50:06 10° NE
Cosmos 1633 Rocket 4.2 23:49:44 10° NNW 23:53:42 33° W 23:55:08 26° SW
